Regional Weather Roundup
Issued by NWS

Home | Current Version | Previous Version | Text Only | Print | Product List | Glossary On
Versions: 1 2 3 4 5 6 7 8 9 10 11 12 13 14 15 16 17 18 19 20 21 22 23 24 25 26 27 28 29 30 31 32 33 34 35 36 37 38 39 40 41 42 43 44 45 46 47 48 49 50
000
ASUS45 KREV 180610
RWRNV
NEVADA REGIONAL WEATHER ROUNDUP
NATIONAL WEATHER SERVICE RENO NV
1000 PM PST WED JAN 17 2018

NOTE: "FAIR" INDICATES FEW OR NO CLOUDS BELOW 12,000 FEET WITH NO
SIGNIFICANT WEATHER AND/OR OBSTRUCTIONS TO VISIBILITY.

NVZ001-003-004-180700-
WESTERN NEVADA

CITY           SKY/WX    TMP DP  RH WIND       PRES   REMARKS
RENO           MOCLDY    45  36  70 CALM      30.15F
6HR MIN TEMP:  44; 6HR MAX TEMP:  59;

CARSON CITY    FAIR      37  32  81 N5        30.21F
SLIDE MTN        N/A     34  32  93 SW32        N/A
PYRAMID LAKE     N/A     48 N/A N/A SW3         N/A
FALLON         MOCLDY    38  27  64 SW5       30.18F
6HR MIN TEMP:  37; 6HR MAX TEMP:  55;

LOVELOCK       CLOUDY    34  31  88 CALM      30.18F
6HR MIN TEMP:  34; 6HR MAX TEMP:  50;

$$

NVZ002-CAZ072-073-180700-
NORTHERN AND CENTRAL SIERRA

CITY           SKY/WX    TMP DP  RH WIND       PRES   REMARKS
S. LAKE TAHOE  CLEAR     47  34  60 S7        30.24F
6HR MIN TEMP:  43; 6HR MAX TEMP:  52;

TRUCKEE        PTCLDY    46  34  61 CALM      30.22F
SQUAW VLY 8000   N/A     39  34  81 S12         N/A
SUSANVILLE     CLEAR     36  36 100 NW3       30.15F
BLUE CANYON    MOCLDY    49  34  56 SE7       30.23F
MAMMOTH LAKES  FAIR      32  26  80 CALM      30.36S
6HR MIN TEMP:  32; 6HR MAX TEMP:  53;

$$

NVZ030-031-036-180700-
NORTHERN NEVADA

CITY           SKY/WX    TMP DP  RH WIND       PRES   REMARKS
ELKO           CLOUDY    31  27  85 E7        30.27F
6HR MIN TEMP:  30; 6HR MAX TEMP:  44;

WINNEMUCCA     CLOUDY    41  33  73 E7        30.18F
6HR MIN TEMP:  41; 6HR MAX TEMP:  53;

WENDOVER       MOCLDY    30  24  78 SW3       30.32F
$$

NVZ035-037-180700-
CENTRAL NEVADA

CITY           SKY/WX    TMP DP  RH WIND       PRES   REMARKS
ELY            MOCLDY    29  22  75 S8        30.32F
6HR MIN TEMP:  29; 6HR MAX TEMP:  51;

EUREKA           N/A     35  28  75 SW9       30.29S
6HR MIN TEMP:  30; 6HR MAX TEMP:  48;

$$

NVZ013-014-180700-
SOUTH CENTRAL NEVADA

CITY           SKY/WX    TMP DP  RH WIND       PRES   REMARKS
TONOPAH        CLOUDY    37  29  72 N12       30.32R
6HR MIN TEMP:  37; 6HR MAX TEMP:  55;

$$

NVZ017-020-022-180700-
SOUTHERN NEVADA

CITY           SKY/WX    TMP DP  RH WIND       PRES   REMARKS
LAS VEGAS      MOCLDY    56  39  53 SW3       30.24R
6HR MIN TEMP:  55; 6HR MAX TEMP:  66;

N. LAS VEGAS   PTCLDY    53  37  54 N6        30.23S
6HR MIN TEMP:  52; 6HR MAX TEMP:  66;

NELLIS AFB     PTCLDY    49  42  77 CALM      30.27R
6HR MIN TEMP:  49; 6HR MAX TEMP:  61;

HENDERSON      PTCLDY    50  37  61 S10       30.26S
6HR MIN TEMP:  50; 6HR MAX TEMP:  64;

MERCURY        MOCLDY    48  35  60 NE3       30.26S
6HR MIN TEMP:  45; 6HR MAX TEMP:  61;

$$



USA.gov is the U.S. government's official web portal to all federal, state and local government web resources and services.